Weather History for KSJN - December, 2012

Change the Weather History Date:

Monday, December 10, 2012

  Actual Average (KSOW) Record (KSOW)
Temperature  
Mean Temperature 26 °F -  
Max Temperature 45 °F 44 °F 65 °F (1987)
Min Temperature 8 °F 24 °F -7 °F (1978)
Degree Days  
Heating Degree Days 38    
Moisture  
Dew Point 0 °F    
Average Humidity 37    
Maximum Humidity 64    
Minimum Humidity 14    
Precipitation  
Precipitation 0.00 in - - ()
Sea Level Pressure  
Sea Level Pressure 30.21 in    
Wind  
Wind Speed 3 mph (South)    
Max Wind Speed 7 mph    
Max Gust Speed -    
Visibility 10 miles    
Events      
Averages and records for this station are not official NWS values.
T = Trace of Precipitation, MM = Missing Value Source: NWS Daily Summary

Daily Weather History Graph

Daily Weather History Graph

Search for Another Location

Airport or City:

Trip Planner

Search our weather history database for the weather conditions in past years. The results will help you decide how hot, cold, wet, or windy it might be!

Date:

Astronomy

Dec. 10, 2012 Rise Set
Actual Time 7:13 AM MST 5:07 PM MST
Civil Twilight 6:45 AM MST 5:35 PM MST
Nautical Twilight 6:14 AM MST 6:06 PM MST
Astronomical Twilight 5:43 AM MST 6:37 PM MST
Moon 4:05 AM MST (12/10) 2:55 PM MST (12/10)
Length of Visible Light 10h 49m
Length of Day
9h 53m
Waning Crescent, 10% of the Moon is Illuminated
Dec 10
Waning Crescent
Dec 13
New
Dec 19
First Quarter
Dec 28
Full
Jan 4
Last Quarter

Hourly Weather History & Observations

Time (MST) Temp. Windchill Dew Point Humidity Pressure Visibility Wind Dir Wind Speed Gust Speed Precip Events Conditions
12:54 AM 14.0 °F 6.5 °F -0.0 °F 54% 30.20 in 10.0 mi South 4.6 mph - N/A   Clear
1:54 AM 16.0 °F - -0.0 °F 49% 30.20 in 10.0 mi Calm Calm - N/A   Clear
2:54 AM 10.0 °F 1.8 °F -2.0 °F 58% 30.23 in 10.0 mi South 4.6 mph - N/A   Clear
3:54 AM 12.9 °F 6.9 °F -2.0 °F 51% 30.25 in 10.0 mi NE 3.5 mph - N/A   Clear
4:54 AM 10.0 °F - -2.0 °F 58% 30.27 in 10.0 mi Calm Calm - N/A   Clear
5:54 AM 8.1 °F - -2.9 °F 61% 30.30 in 10.0 mi Calm Calm - N/A   Clear
6:54 AM 7.0 °F - -2.9 °F 64% 30.32 in 10.0 mi Calm Calm - N/A   Clear
7:54 AM 10.9 °F - -2.9 °F 54% 30.34 in 10.0 mi Calm Calm - N/A   Clear
8:54 AM 18.0 °F - -0.9 °F 44% 30.32 in 10.0 mi Calm Calm - N/A   Clear
9:54 AM 24.1 °F - 1.0 °F 37% 30.32 in 10.0 mi Calm Calm - N/A   Clear
10:54 AM 28.9 °F 23.9 °F -0.0 °F 29% 30.33 in 10.0 mi North 4.6 mph - N/A   Clear
11:54 AM 32.0 °F - -2.0 °F 23% 30.29 in 10.0 mi Calm Calm - N/A   Clear
12:54 PM 35.1 °F 32.2 °F -5.1 °F 18% 30.22 in 10.0 mi SSW 3.5 mph - N/A   Clear
1:54 PM 37.0 °F 34.5 °F -2.9 °F 18% 30.17 in 10.0 mi Variable 3.5 mph - N/A   Clear
2:54 PM 39.0 °F - 1.0 °F 20% 30.17 in 10.0 mi Calm Calm - N/A   Clear
3:54 PM 39.9 °F 37.8 °F 1.9 °F 20% 30.13 in 10.0 mi Variable 3.5 mph - N/A   Clear
4:54 PM 37.9 °F 35.5 °F 1.9 °F 22% 30.14 in 10.0 mi NNW 3.5 mph - N/A   Clear
5:54 PM 33.1 °F 26.9 °F 1.0 °F 26% 30.17 in 10.0 mi NNW 6.9 mph - N/A   Clear
6:54 PM 28.0 °F - -0.0 °F 30% 30.19 in 10.0 mi Calm Calm - N/A   Clear
7:54 PM 25.0 °F 18.1 °F -0.9 °F 33% 30.20 in 10.0 mi South 5.8 mph - N/A   Clear
8:54 PM 25.0 °F 18.1 °F -0.0 °F 34% 30.17 in 10.0 mi South 5.8 mph - N/A   Clear
9:54 PM 24.1 °F 18.2 °F 1.0 °F 37% 30.15 in 10.0 mi South 4.6 mph - N/A   Clear
10:54 PM 24.1 °F 19.7 °F 3.0 °F 40% 30.13 in 10.0 mi South 3.5 mph - N/A   Clear
11:54 PM 24.1 °F 17.0 °F 3.0 °F 40% 30.12 in 10.0 mi SSE 5.8 mph - N/A   Clear